Pagrindinis puslapis
METAR-TAF:

METAR-TAF

Oro uostai :

Clayton, Naujoji Meksika, Jungtinės Amerikos Valstijos

platuma: 36-26-54N, ilguma: 103-09-11W, Aukštis: 1513 m

Dabartinis oras

Ataskaita buvo paskelbta 28 minutes, ne 03:55 UTC
Vėjas 8 kt iš Pietų
Temperatūra 23°C
Drėgmė 50%
Slėgis 1019 hPa
Matomumas: 16.1 km
Giedras dangus

METAR: KCAO 160355Z AUTO 18008KT 10SM CLR 23/12 A3009 RMK AO2 SLP113 T02330117

Laikas: 22:23 (04:23 UTC)


TAF: trūkstamas

Orai ataskaitas ir orų prognozės (METAR, TAF).

turimą stotys yra geltonos ir raudonos taškus žemėlapyje.

Perkelti pele per norėdami pamatyti stoties vardą.

Tada spustelėkite, norėdami matyti oro stebėjimo ir prognozės.

Norėdami pakeisti žemėlapį: spustelėkite ant žalios mygtukų su juodo kryžiaus žemyn,; žalią mygtuką su brūkšneliu, jei norite nutolinti; arba žalių rodyklių gretimoms žemėlapius.


METAR-TAF: